Home   Weather   Dera Ghazi Khan   Past weeks
Flag for Pakistan

Past Weather in Dera Ghazi Khan, Pakistan — Yesterday and Last 2 Weeks

Now
88 °F

Haze.


Feels Like: 87 °F
Forecast: 94 / 66 °F
Wind: 7 mph from Southeast

Location: Multan Airport

Current Time: Apr 4, 2020 at 2:05:22 pm

Latest Report: Apr 4, 2020 at 1:30 pm


Visibility: 2 mi

Pressure: 29.92 "Hg

Humidity: 35%

Dew Point: 57 °F

Location of Dera Ghazi KhanLocation

Past Weather in Dera Ghazi Khan — Graph

°F

Dera Ghazi Khan Temperature Yesterday

Maximum temperature yesterday: 86 °F (at 2:00 pm)
Minimum temperature yesterday: 61 °F (at 7:00 am)
Average temperature yesterday: 77 °F

High & Low Weather Summary for the Past Weeks

 TemperatureHumidityPressure
High86 °F (Apr 2, 5:00 pm)100% (Mar 25, 5:00 am)30.01 "Hg (Mar 25, 5:00 am)
Low59 °F (Apr 1, 6:00 am)24% (Apr 3, 3:00 pm)29.74 "Hg (Mar 20, 3:30 pm)
Average73 °F68%29.89 "Hg
* Reported Mar 20 12:00 pm — Apr 4 12:30 pm, Dera Ghazi Khan. Weather by CustomWeather, © 2020

Note: Actual official high and low records may vary slightly from our data, if they occured in-between our weather recording intervals... More about our weather records

Dera Ghazi Khan Weather History for the Previous 24 Hours

Scroll right to see more
 ConditionsComfort  
Time TempWeatherWind HumidityBarometerVisibility
12:30 pm
Sat, Apr 4
84 °FHaze.7 mph37%29.95 "Hg2 mi
11:30 am84 °FHaze.7 mph37%29.95 "Hg2 mi
11:00 am82 °FHaze.5 mph40%29.95 "Hg2 mi
10:00 am79 °FHaze.No wind48%29.98 "Hg2 mi
9:00 am75 °FPassing clouds.No wind57%29.95 "Hg2 mi
8:30 am73 °FPassing clouds.No wind61%29.95 "Hg2 mi
8:00 am70 °FPassing clouds.No wind73%29.92 "Hg2 mi
7:00 am66 °FClear.No wind73%29.89 "Hg2 mi
6:00 am68 °FClear.No wind60%29.86 "Hg3 mi
5:00 am70 °FClear.No wind57%29.86 "Hg3 mi
3:00 am72 °FHaze.No wind53%29.86 "Hg3 mi
2:00 am72 °FHaze.No wind53%29.86 "Hg3 mi
1:00 am73 °FHaze.No wind53%29.86 "Hg3 mi
12:00 am77 °FHaze.No wind47%29.86 "Hg3 mi
11:00 pm
Fri, Apr 3
77 °FHaze.No wind47%29.86 "Hg3 mi
10:30 pm77 °FHaze.No wind47%29.86 "Hg3 mi
10:00 pm79 °FHaze.No wind45%29.86 "Hg3 mi
9:30 pm79 °FHaze.No wind45%29.86 "Hg3 mi
9:00 pm79 °FHaze.No wind45%29.86 "Hg3 mi
8:30 pm79 °FHaze.No wind45%29.86 "Hg3 mi
8:00 pm81 °FHaze.No wind42%29.86 "Hg3 mi
7:30 pm81 °FHaze.No wind42%29.86 "Hg3 mi
7:00 pm82 °FHaze.No wind37%29.86 "Hg3 mi
6:30 pm82 °FHaze.No wind37%29.83 "Hg3 mi
6:00 pm84 °FHaze.5 mph35%29.83 "Hg3 mi
5:30 pm84 °FClear.9 mph35%29.83 "Hg4 mi
5:00 pm86 °FHaze.7 mph33%29.83 "Hg5 mi
4:00 pm86 °FHaze.7 mph29%29.83 "Hg5 mi
3:30 pm86 °FClear.7 mph24%29.86 "Hg5 mi
3:00 pm86 °FPassing clouds.7 mph24%29.86 "Hg5 mi
2:30 pm86 °FPassing clouds.9 mph29%29.89 "Hg5 mi
2:00 pm86 °FHaze.9 mph29%29.89 "Hg5 mi
Weather by CustomWeather, © 2020

See weather overview

Advertising